User: anonymous   Login
Location: Indian Springs
(36.5700°N, 115.6700°W)
Time: 16:10:35
(UTC-07:00)
Language:

Cosmos 2278 Rocket - Orbit

View from above orbital plane
View from above orbital plane
View from above satellite
View from above satellite

Ground track
Ground track

The orbit data is extracted from the following two-line orbital elements,

1 23088U 94023B   16122.31660203  .00000219  00000-0  13874-3 0  9990
2 23088  71.0001  66.5042 0003559 331.8728  28.2202 14.14637602137291
Epoch (UTC): 01 May 2016 07:35:54
Eccentricity: 0.0003559
inclination: 71.0001°
perigee height: 841 km
apogee height: 846 km
right ascension of ascending node: 66.5042°
argument of perigee: 331.8728°
revolutions per day: 14.14637602
mean anomaly at epoch: 28.2202°
orbit number at epoch: 13729

The dashed part of the orbit path shows where the satellite is in the earth's shadow,  

DLR